AOR-E (EGNOS/PRN 120) 1 24307U 96053A 10076.11517728 -.00000121 00000-0 10000-3 0 1468 2 24307 0.0971 314.9399 0005434 27.7117 217.8768 1.00272723 49527 IOR-W (EGNOS/PRN 126) 1 25153U 98006B 10075.86116421 .00000141 00000-0 10000-3 0 04 2 25153 0.4937 358.7288 0003330 6.0800 144.2535 1.00273841 44407 ARTEMIS (EGNOS/PRN 124) 1 26863U 01029A 10075.86179016 .00000131 00000-0 10000-3 0 8570 2 26863 8.1026 65.3625 0004874 312.6793 127.9293 1.00275786 32885 MTSAT-1R (MSAS/PRN 129) 1 28622U 05006A 10074.42507977 -.00000283 00000-0 10000-3 0 3413 2 28622 0.0462 9.4737 0002287 173.5337 282.9605 1.00268954 18479 IOR (GAGAN/PRN 127) 1 28628U 05009A 10076.37521005 -.00000259 00000-0 10000-3 0 2553 2 28628 2.3469 329.4257 0002706 31.9845 91.9807 1.00271793 18169 ANIK F1R (WAAS/PRN 138) 1 28868U 05036A 10075.33953979 -.00000074 00000-0 00000+0 0 7626 2 28868 0.0237 73.5979 0001594 341.1980 133.9050 1.00272295 16625 GALAXY 15 (WAAS/PRN 135) 1 28884U 05041A 10075.42355663 .00000079 00000-0 10000-3 0 7849 2 28884 0.0149 260.7046 0002426 94.3720 198.2962 1.00274249 16216 MTSAT-2 (MSAS/PRN 137) 1 28937U 06004A 10076.45041142 -.00000240 00000-0 10000-3 0 7173 2 28937 0.0299 256.8919 0002811 94.3767 130.7852 1.00275294 14976